Location: Unspecified
(51.2667°N, 0.0000°E)
Time: 22:48:01
(UTC+00:00)

POLYITAN 1 - Visible Passes

Search period start: 22 September 2019 00:00
Search period end: 02 October 2019 00:00
Orbit: 591 x 613 km, 97.9° (Epoch: 21 September)

Date Brightness Start Highest point End Pass type
(mag) Time Alt. Az. Time Alt. Az. Time Alt. Az.
22 Sep ? 00:41:30 10° NNE 00:42:05 14° NNE 00:42:05 14° NNE visible
22 Sep ? 02:18:18 10° NNW 02:18:51 12° NNW 02:18:51 12° NNW visible
23 Sep ? 00:53:10 10° NNE 00:53:48 14° NNE 00:53:48 14° NNE visible
23 Sep ? 02:30:27 10° NNW 02:30:35 10° NNW 02:30:35 10° NNW visible
24 Sep ? 01:04:53 10° N 01:05:31 14° N 01:05:31 14° N visible
25 Sep ? 01:16:38 10° N 01:17:14 14° N 01:17:14 14° N visible
26 Sep ? 01:28:25 10° N 01:28:58 13° N 01:28:58 13° N visible
27 Sep ? 01:40:14 10° N 01:40:41 12° N 01:40:41 12° N visible
28 Sep ? 01:52:06 10° N 01:52:24 12° N 01:52:24 12° N visible
29 Sep ? 02:04:00 10° NNW 02:04:07 11° NNW 02:04:07 11° NNW visible
